Regional Weather Roundup
Issued by NWS

Home | Current Version | Previous Version | Graphics & Text | Print | Product List | Glossary On
Versions: 1 2 3 4 5 6 7 8 9 10 11 12 13 14 15 16 17 18 19 20 21 22 23 24 25 26 27 28 29 30 31 32 33 34 35 36 37 38 39 40 41 42 43 44 45 46 47 48 49 50
484
ASUS45 KCYS 252110
RWRWY

WYOMING REGIONAL WEATHER ROUNDUP
NATIONAL WEATHER SERVICE CHEYENNE WY
300 PM MDT SAT MAR 25 2017

NOTE:  "FAIR" INDICATES FEW OR NO CLOUDS BELOW 12,000 FEET
WITH NO SIGNIFICANT WEATHER AND/OR OBSTRUCTIONS TO VISIBILITY.

WYZ001-252200-
YELLOWSTONE NATIONAL PARK

CITY           SKY/WX    TMP DP  RH WIND       PRES   REMARKS
LK YELLOWSTONE   N/A     37  24  59 VRB6      29.96F WCI  32
W YELLOWSTONE  NOT AVBL

$$
WYZ002>013-054>058-071-098>099-252200-
NORTHERN WYOMING

CITY           SKY/WX    TMP DP  RH WIND       PRES   REMARKS
JACKSON        MOSUNNY   41  32  70 S5        29.95F
CODY           PTSUNNY   47  28  47 N12       29.93F
GREYBULL       LGT RAIN  51  39  63 E7        29.88F
WORLAND        CLOUDY    53  38  56 N7        29.86F
SHERIDAN       CLOUDY    48  40  73 W10       29.93F
BUFFALO        CLOUDY    52  35  52 N13G21    29.92F
GILLETTE       FAIR      58  34  40 N9        29.88F
HULETT         CLOUDY    59  32  36 N13       29.88F
NEWCASTLE      FAIR      64  27  24 CALM      29.83F

$$
WYZ014>020-022>026-101>103-252200-
CENTRAL WYOMING

CITY           SKY/WX    TMP DP  RH WIND       PRES   REMARKS
BIG PINEY      LGT RAIN  36  35  96 N5        29.95F WCI  32
PINEDALE       LGT RAIN  36  34  93 S9        29.95F WCI  29
DUBOIS         CLOUDY    41  32  70 N12       29.90F
LANDER         CLOUDY    49  34  56 W7        29.87F
RIVERTON       CLOUDY    50  33  52 NE8       29.89F
CASPER         FAIR      55  30  38 N6        29.88F
DOUGLAS        FAIR      60  29  30 W7        29.87F

$$
WYZ021-027>030-104>119-252200-
SOUTHERN WYOMING

CITY           SKY/WX    TMP DP  RH WIND       PRES   REMARKS
EVANSTON       LGT RAIN  38  34  85 W8        29.94F WCI  32
KEMMERER       LGT RAIN  36  34  93 CALM      29.95F
FORT BRIDGER   CLOUDY    43  35  74 W8        29.96F
ROCK SPRINGS   FAIR      51  30  44 N6        29.90F
DIXON            N/A     57  24  28 CALM      29.92F
RAWLINS        CLOUDY    54  22  28 W10       29.91F
SARATOGA       FAIR      54  19  26 S3        29.92F
LARAMIE        FAIR      56  12  17 CALM      29.91F
CHEYENNE       FAIR      59  21  23 S10       29.91F
TORRINGTON     FAIR      64  22  20 W3        29.84F
PINE BLUFFS    FAIR      61  25  25 S10G18    29.90F

$$




USA.gov is the U.S. government's official web portal to all federal, state and local government web resources and services.